WA7SB-7 Weather Reports


Display with metric or nautical units.
time (UTC)temp
F
wind
direction
speed
MPH
gust
MPH
rain 1hr
in
rain 24hr
in
rain mn
in
humidity
%
barometer
mb
20260502130533 51 170 0.0 0.0 0.00 0.00 0.00 86 1017.0
20260502130432 51 95 0.0 0.0 0.00 0.00 0.00 86 1017.0
20260502123520 51 330 0.0 0.0 0.00 0.00 0.00 86 1016.8
20260502123422 51 330 0.0 0.0 0.00 0.00 0.00 86 1016.9
20260502123018 51 110 0.0 0.0 0.00 0.00 0.00 86 1016.9
20260502122923 51 263 0.0 0.0 0.00 0.00 0.00 86 1017.0
20260502122515 51 193 0.0 0.0 0.00 0.00 0.00 86 1017.2
20260502122436 51 193 0.0 0.0 0.00 0.00 0.00 86 1017.2
20260502122031 51 245 0.0 0.0 0.00 0.00 0.00 86 1017.3
20260502121931 51 254 0.0 0.0 0.00 0.00 0.00 86 1017.3
20260502121530 51 283 0.0 0.0 0.00 0.00 0.00 86 1017.3
20260502121431 51 283 0.0 0.0 0.00 0.00 0.00 86 1017.3
20260502121029 51 255 0.0 0.0 0.00 0.00 0.00 86 1017.3
20260502120930 51 255 0.0 0.0 0.00 0.00 0.00 86 1017.3
20260502120529 51 302 0.0 0.0 0.00 0.00 0.00 86 1017.3
20260502120427 51 302 0.0 0.0 0.00 0.00 0.00 86 1017.4
20260502115916 51 278 0.0 0.0 0.00 0.00 0.00 87 1017.4
20260502115514 51 278 0.0 0.0 0.00 0.00 0.00 87 1017.3
20260502115434 51 278 0.0 0.0 0.00 0.00 0.00 87 1017.2
20260502115031 51 277 0.0 0.0 0.00 0.00 0.00 87 1017.3
20260502114933 51 277 0.0 0.0 0.00 0.00 0.00 87 1017.2
20260502114533 51 167 0.0 0.0 0.00 0.00 0.00 87 1017.3
20260502114414 51 167 0.0 0.0 0.00 0.00 0.00 87 1017.3
20260502114015 51 190 0.0 0.0 0.00 0.00 0.00 87 1017.3
20260502113936 51 190 0.0 0.0 0.00 0.00 0.00 87 1017.3
20260502113533 51 190 0.0 0.0 0.00 0.00 0.00 87 1017.3
20260502113437 51 190 0.0 0.0 0.00 0.00 0.00 87 1017.3
20260502113032 51 77 0.0 0.0 0.00 0.00 0.00 87 1017.3
20260502112934 51 77 0.0 0.0 0.00 0.00 0.00 87 1017.4
20260502112532 51 245 0.0 0.0 0.00 0.00 0.00 86 1017.3
20260502112432 51 245 0.0 0.0 0.00 0.00 0.00 86 1017.4
20260502112032 51 210 0.0 0.0 0.00 0.00 0.00 86 1017.4
20260502111933 51 210 0.0 0.0 0.00 0.00 0.00 86 1017.3
20260502111532 51 272 0.0 0.0 0.00 0.00 0.00 86 1017.4
20260502111434 51 273 0.0 0.0 0.00 0.00 0.00 86 1017.4
20260502111033 51 268 0.0 0.0 0.00 0.00 0.00 86 1017.4
20260502110934 51 268 0.0 0.0 0.00 0.00 0.00 86 1017.4
20260502110534 51 164 0.0 0.0 0.00 0.00 0.00 86 1017.4
20260502110414 51 34 0.0 0.0 0.00 0.00 0.00 86 1017.4
20260502110023 51 295 0.0 0.0 0.00 0.00 0.00 86 1017.3
20260502105925 51 323 0.0 0.0 0.00 0.00 0.00 86 1017.3
20260502105524 51 323 0.0 0.0 0.00 0.00 0.00 86 1017.3
20260502105426 51 227 0.0 0.0 0.00 0.00 0.00 86 1017.3
20260502105022 51 143 0.0 0.0 0.00 0.00 0.00 87 1017.3
20260502104921 51 283 0.0 0.0 0.00 0.00 0.00 87 1017.4
20260502104517 51 283 0.0 0.0 0.00 0.00 0.00 87 1017.4
20260502104437 51 283 0.0 0.0 0.00 0.00 0.00 87 1017.4
20260502104029 51 243 0.0 0.0 0.00 0.00 0.00 87 1017.5
20260502103932 51 232 0.0 0.0 0.00 0.00 0.00 87 1017.4
20260502103529 51 116 0.0 0.0 0.00 0.00 0.00 87 1017.5
20260502103432 51 137 0.0 0.0 0.00 0.00 0.00 87 1017.5
20260502103026 51 236 0.0 0.0 0.00 0.00 0.00 87 1017.5
20260502102927 51 236 0.0 0.0 0.00 0.00 0.00 87 1017.6
20260502102528 51 159 0.0 0.0 0.00 0.00 0.00 87 1017.5
20260502102428 51 8 0.0 0.0 0.00 0.00 0.00 87 1017.5
20260502102025 51 272 0.0 0.0 0.00 0.00 0.00 87 1017.6
20260502101924 51 227 0.0 0.0 0.00 0.00 0.00 87 1017.6
20260502101525 51 306 0.0 0.0 0.00 0.00 0.00 86 1017.6
20260502101426 51 306 0.0 0.0 0.00 0.00 0.00 86 1017.6
20260502101026 51 265 0.0 0.0 0.00 0.00 0.00 86 1017.6
20260502100928 51 265 0.0 0.0 0.00 0.00 0.00 86 1017.6
20260502100529 51 84 0.0 0.0 0.00 0.00 0.00 86 1017.8
20260502100430 51 84 0.0 0.0 0.00 0.00 0.00 86 1017.7
20260502091515 51 288 0.0 0.0 0.00 0.00 0.00 86 1018.0
20260502091417 51 290 0.0 0.0 0.00 0.00 0.00 86 1018.0
20260502091018 51 179 0.0 0.0 0.00 0.00 0.00 86 1018.0
20260502090919 51 147 0.0 0.0 0.00 0.00 0.00 86 1018.1
20260502090519 51 214 0.0 0.0 0.00 0.00 0.00 86 1018.1
20260502090417 51 213 0.0 0.0 0.00 0.00 0.00 86 1018.1
20260502071527 51 229 0.0 0.0 0.00 0.00 0.00 87 1018.8
20260502071427 51 286 0.0 0.0 0.00 0.00 0.00 87 1018.8
20260502071021 51 276 0.0 0.0 0.00 0.00 0.00 86 1018.8
20260502070922 51 276 0.0 0.0 0.00 0.00 0.00 86 1018.7
20260502070521 51 245 0.0 0.0 0.00 0.00 0.00 86 1018.7
20260502070421 51 286 0.0 0.0 0.00 0.00 0.00 86 1018.8
20260502070026 51 228 0.0 0.0 0.00 0.00 0.00 86 1018.7
20260502065920 51 191 0.0 0.0 0.00 0.00 0.00 86 1018.8
20260502065520 51 240 0.0 0.0 0.00 0.00 0.00 86 1018.8
20260502065421 51 248 0.0 0.0 0.00 0.00 0.00 86 1018.8
20260502065022 51 212 0.0 0.0 0.00 0.00 0.00 86 1018.7
20260502064923 51 212 0.0 0.0 0.00 0.00 0.00 86 1018.8
20260502064519 51 233 0.0 0.0 0.00 0.00 0.00 86 1018.7
20260502064423 51 233 0.0 0.0 0.00 0.00 0.00 86 1018.7
20260502064020 51 244 0.0 0.0 0.00 0.00 0.00 85 1018.8
20260502063925 51 127 0.0 0.0 0.00 0.00 0.00 85 1018.8
20260502063522 51 147 0.0 0.0 0.00 0.00 0.00 85 1018.8
20260502063423 51 147 0.0 0.0 0.00 0.00 0.00 85 1018.9
20260502063022 51 296 0.0 0.0 0.00 0.00 0.00 85 1018.9
20260502062922 51 60 0.0 0.0 0.00 0.00 0.00 85 1018.9
20260502062521 52 220 0.0 0.0 0.00 0.00 0.00 86 1018.9
20260502062422 52 281 0.0 0.0 0.00 0.00 0.00 86 1018.9
20260502062021 52 139 0.0 0.0 0.00 0.00 0.00 86 1019.0
20260502061921 52 139 0.0 0.0 0.00 0.00 0.00 86 1019.1
20260502061519 52 269 0.0 0.0 0.00 0.00 0.00 86 1019.0
20260502061419 52 359 0.0 0.0 0.00 0.00 0.00 86 1019.0
20260502061019 52 20 0.0 0.0 0.00 0.00 0.00 85 1019.0
20260502060920 52 20 0.0 0.0 0.00 0.00 0.00 85 1019.1
20260502060521 51 185 0.0 0.0 0.00 0.00 0.00 85 1019.1
20260502060421 52 185 0.0 0.0 0.00 0.00 0.00 85 1019.1
20260502060032 51 149 0.0 0.0 0.00 0.00 0.00 85 1019.1
20260502055915 51 141 0.0 0.0 0.00 0.00 0.00 85 1019.1
20260502055516 51 37 0.0 0.0 0.00 0.00 0.00 85 1019.2
20260502055418 51 36 0.0 0.0 0.00 0.00 0.00 85 1019.2
20260502055017 51 212 0.0 0.0 0.00 0.00 0.00 85 1019.2
20260502054918 51 287 0.0 0.0 0.00 0.00 0.00 85 1019.1
20260502054517 51 305 0.0 0.0 0.00 0.00 0.00 85 1019.2
20260502054419 51 317 0.0 0.0 0.00 0.00 0.00 85 1019.1
20260502054016 52 75 0.0 0.0 0.00 0.00 0.00 86 1019.1
20260502053920 52 242 0.0 0.0 0.00 0.00 0.00 86 1019.1
20260502053516 52 68 0.0 0.0 0.00 0.00 0.00 86 1019.2
20260502053420 52 69 0.0 0.0 0.00 0.00 0.00 86 1019.1
20260502053014 52 65 0.0 0.0 0.00 0.00 0.00 86 1019.1
20260502052934 52 181 0.0 0.0 0.00 0.00 0.00 86 1019.2
20260502052530 52 214 0.0 0.0 0.00 0.00 0.00 86 1019.1
20260502052432 52 214 0.0 0.0 0.00 0.00 0.00 86 1019.1
20260502052031 52 127 0.0 0.0 0.00 0.00 0.00 86 1019.2
20260502051934 52 127 0.0 0.0 0.00 0.00 0.00 86 1019.2
20260502051533 52 77 0.0 0.0 0.00 0.00 0.00 86 1019.2
20260502051433 52 300 0.0 0.0 0.00 0.00 0.00 86 1019.2
20260502051032 52 178 0.0 0.0 0.00 0.00 0.00 85 1019.2
20260502050932 52 195 0.0 0.0 0.00 0.00 0.00 85 1019.2
20260502050525 52 266 0.0 0.0 0.00 0.00 0.00 85 1019.3
20260502050425 52 267 0.0 0.0 0.00 0.00 0.00 85 1019.2
20260502050015 52 231 0.0 0.0 0.00 0.00 0.00 85 1019.1
20260502045916 52 127 0.0 0.0 0.00 0.00 0.00 85 1019.2
20260502045515 52 258 0.0 0.0 0.00 0.00 0.00 86 1019.1
20260502045415 52 290 0.0 0.0 0.00 0.00 0.00 86 1019.2
20260502045015 52 277 0.0 0.0 0.00 0.00 0.00 86 1019.1
20260502044915 52 153 0.0 0.0 0.00 0.00 0.00 86 1019.2
20260502044528 52 220 0.0 0.0 0.00 0.00 0.00 86 1019.1
20260502044434 52 232 0.0 0.0 0.00 0.00 0.00 86 1019.2
20260502044030 52 275 0.0 0.0 0.00 0.00 0.00 86 1019.0
20260502043935 52 253 0.0 0.0 0.00 0.00 0.00 86 1019.0
20260502043529 52 222 0.0 0.0 0.00 0.00 0.00 86 1018.9
20260502043426 52 224 0.0 0.0 0.00 0.00 0.00 86 1018.9
20260502043024 52 155 0.0 0.0 0.00 0.00 0.00 86 1018.9
20260502042924 52 250 0.0 0.0 0.00 0.00 0.00 86 1018.9
20260502042524 52 265 0.0 0.0 0.00 0.00 0.00 86 1018.9
20260502042425 52 147 0.0 0.0 0.00 0.00 0.00 86 1018.9
20260502042027 52 309 0.0 0.0 0.00 0.00 0.00 86 1018.8
20260502041928 52 64 0.0 0.0 0.00 0.00 0.00 86 1018.8
20260502041526 52 282 0.0 0.0 0.00 0.00 0.00 86 1018.8
20260502041427 52 281 0.0 0.0 0.00 0.00 0.00 86 1018.9
20260502041028 52 210 0.0 0.0 0.00 0.00 0.00 86 1018.8
20260502040929 52 210 0.0 0.0 0.00 0.00 0.00 86 1018.8
20260502040529 52 298 0.0 0.0 0.00 0.00 0.00 86 1018.8
20260502040428 52 299 0.0 0.0 0.00 0.00 0.00 86 1018.8
20260502040015 52 108 0.0 0.0 0.00 0.00 0.00 86 1018.8
20260502035917 52 22 0.0 0.0 0.00 0.00 0.00 86 1018.9
20260502035516 52 41 0.0 0.0 0.00 0.00 0.00 86 1018.8
20260502035417 52 72 0.0 0.0 0.00 0.00 0.00 86 1018.8
20260502035017 52 104 0.0 0.0 0.00 0.00 0.00 86 1018.8
20260502034920 52 144 0.0 0.0 0.00 0.00 0.00 86 1018.7
20260502034517 52 139 0.0 0.0 0.00 0.00 0.00 86 1018.8
20260502034423 52 138 0.0 0.0 0.00 0.00 0.00 86 1018.7
20260502034018 52 300 0.0 0.0 0.00 0.00 0.00 86 1018.8
20260502033923 52 309 0.0 0.0 0.00 0.00 0.00 86 1018.8
20260502033519 52 89 0.0 0.0 0.00 0.00 0.00 86 1018.7
20260502033419 52 209 0.0 0.0 0.00 0.00 0.00 86 1018.7
20260502033022 52 85 0.0 0.0 0.00 0.00 0.00 86 1018.8
20260502032922 52 85 0.0 0.0 0.00 0.00 0.00 86 1018.7
20260502032521 52 102 0.0 0.0 0.00 0.00 0.00 86 1018.7
20260502032421 52 102 0.0 0.0 0.00 0.00 0.00 86 1018.7
20260502032020 52 279 0.0 0.0 0.00 0.00 0.00 86 1018.7
20260502031922 52 279 0.0 0.0 0.00 0.00 0.00 86 1018.7
20260502031521 52 311 0.0 0.0 0.00 0.00 0.00 85 1018.7
20260502031422 52 292 0.0 0.0 0.00 0.00 0.00 85 1018.8
20260502031022 52 174 0.0 0.0 0.00 0.00 0.00 86 1018.8
20260502030922 52 174 0.0 0.0 0.00 0.00 0.00 85 1018.7
20260502030533 52 174 0.0 0.0 0.00 0.00 0.00 85 1018.7
20260502030414 52 174 0.0 0.0 0.00 0.00 0.00 85 1018.7
20260502030022 52 226 0.0 0.0 0.00 0.00 0.00 85 1018.7
20260502025922 52 211 0.0 0.0 0.00 0.00 0.00 85 1018.7
20260502025523 52 122 0.0 0.0 0.00 0.00 0.00 85 1018.7
20260502025423 52 118 0.0 0.0 0.00 0.00 0.00 85 1018.7
20260502025022 53 293 0.0 0.0 0.00 0.00 0.00 85 1018.7
20260502024923 53 288 0.0 0.0 0.00 0.00 0.00 85 1018.7
20260502024516 53 228 0.0 0.0 0.00 0.00 0.00 86 1018.7
20260502024421 53 173 0.0 0.0 0.00 0.00 0.00 86 1018.7
20260502024016 53 250 0.0 0.0 0.00 0.00 0.00 85 1018.6
20260502023922 53 306 0.0 0.0 0.00 0.00 0.00 85 1018.6
20260502023520 53 186 0.0 0.0 0.00 0.00 0.00 85 1018.5
20260502023420 53 295 0.0 0.0 0.00 0.00 0.00 86 1018.5
20260502023019 53 295 0.0 0.0 0.00 0.00 0.00 86 1018.6
20260502022919 53 340 0.0 0.0 0.00 0.00 0.00 85 1018.5
20260502022517 53 113 0.0 0.0 0.00 0.00 0.00 85 1018.6
20260502022416 53 75 0.0 0.0 0.00 0.00 0.00 85 1018.5
20260502022016 53 284 0.0 0.0 0.00 0.00 0.00 85 1018.4
20260502021936 53 284 0.0 0.0 0.00 0.00 0.00 85 1018.5
20260502021532 53 315 0.0 0.0 0.00 0.00 0.00 85 1018.6
20260502021431 53 290 0.0 0.0 0.00 0.00 0.00 85 1018.5
20260502021028 53 340 0.0 0.0 0.00 0.00 0.00 85 1018.5
20260502020929 53 205 0.0 0.0 0.00 0.00 0.00 85 1018.5
20260502020528 53 43 0.0 0.0 0.00 0.00 0.00 85 1018.5
20260502020426 53 62 0.0 0.0 0.00 0.00 0.00 85 1018.5
20260502020014 53 93 0.0 0.0 0.00 0.00 0.00 85 1018.6
20260502015933 53 137 0.0 0.0 0.00 0.00 0.00 85 1018.6
20260502015531 53 97 0.0 0.0 0.00 0.00 0.00 85 1018.6
20260502015433 53 323 0.0 0.0 0.00 0.00 0.00 86 1018.6
20260502015028 53 305 0.0 0.0 0.00 0.00 0.00 86 1018.7
20260502014934 53 64 0.0 0.0 0.00 0.00 0.00 86 1018.7
20260502014527 53 73 0.0 0.0 0.00 0.00 0.00 86 1018.7
20260502014431 53 263 0.0 0.0 0.00 0.00 0.00 86 1018.7
20260502014028 53 120 0.0 0.0 0.00 0.00 0.00 86 1018.6
20260502013912 53 120 0.0 0.0 0.00 0.00 0.00 86 1018.6
20260502013533 53 37 0.0 0.0 0.00 0.00 0.00 86 1018.6
20260502013431 53 39 0.0 0.0 0.00 0.00 0.00 86 1018.7
20260502013032 53 281 0.0 0.0 0.00 0.00 0.00 86 1018.6
20260502012932 53 312 0.0 0.0 0.00 0.00 0.00 86 1018.6
20260502012529 54 340 0.0 0.0 0.00 0.00 0.00 86 1018.6
20260502012429 54 281 0.0 0.0 0.00 0.00 0.00 86 1018.6
20260502012028 54 108 0.0 0.0 0.00 0.00 0.00 86 1018.5
20260502011927 54 86 0.0 0.0 0.00 0.00 0.00 86 1018.6
20260502011529 54 315 0.0 0.0 0.00 0.00 0.00 86 1018.6
20260502011432 54 343 0.0 0.0 0.00 0.00 0.00 86 1018.5
20260502011032 54 71 0.0 0.0 0.00 0.00 0.00 86 1018.5
20260502010931 54 228 0.0 0.0 0.00 0.00 0.00 86 1018.5
20260502010532 54 237 0.0 0.0 0.00 0.00 0.00 86 1018.6
20260502010429 54 273 0.0 0.0 0.00 0.00 0.00 86 1018.6
20260502010030 54 257 0.0 0.0 0.00 0.00 0.00 86 1018.6
20260502005930 54 245 0.0 0.0 0.00 0.00 0.00 86 1018.6
20260502005524 54 56 0.0 0.0 0.00 0.00 0.00 86 1018.6
20260502005429 54 309 0.0 0.0 0.00 0.00 0.00 86 1018.7
20260502005023 54 311 0.0 0.0 0.00 0.00 0.00 86 1018.6
20260502004927 54 311 0.0 0.0 0.00 0.00 0.00 86 1018.6
20260502004524 55 330 0.0 0.0 0.00 0.00 0.00 85 1018.6
20260502004420 55 75 0.0 0.0 0.00 0.00 0.00 85 1018.6
20260502004019 55 276 0.0 0.0 0.00 0.00 0.00 85 1018.6
20260502003939 55 146 0.0 0.0 0.00 0.00 0.00 85 1018.6
20260502003014 55 248 0.0 0.0 0.00 0.00 0.00 85 1018.5
20260502002934 55 208 0.0 0.0 0.00 0.00 0.00 85 1018.5
20260502002528 55 302 0.0 0.0 0.00 0.00 0.00 85 1018.5
20260502002432 55 233 0.0 0.0 0.00 0.00 0.00 85 1018.5
20260502002025 55 150 0.0 0.0 0.00 0.00 0.00 86 1018.6
20260502001912 55 150 0.0 0.0 0.00 0.00 0.00 85 1018.4
20260502001531 55 129 0.0 0.0 0.00 0.00 0.00 85 1018.5
20260502001431 55 342 0.0 0.0 0.00 0.00 0.00 85 1018.5
20260502001029 55 137 0.0 0.0 0.00 0.00 0.00 85 1018.4
20260502000929 55 137 0.0 0.0 0.00 0.00 0.00 85 1018.5
20260502000530 55 291 0.0 0.0 0.00 0.00 0.00 85 1018.5
20260502000429 55 255 0.0 0.0 0.00 0.00 0.00 85 1018.5
20260502000020 55 315 0.0 0.0 0.00 0.00 0.00 85 1018.6
20260501235921 55 315 0.0 0.0 0.00 0.00 0.00 85 1018.5
20260501235521 55 129 0.0 0.0 0.00 0.00 0.00 85 1018.6
20260501235419 55 163 0.0 0.0 0.00 0.00 0.00 85 1018.5
20260501235015 55 308 0.0 0.0 0.00 0.00 0.00 85 1018.5
20260501234934 55 306 0.0 0.0 0.00 0.00 0.00 85 1018.6
20260501234532 55 290 0.0 0.0 0.00 0.00 0.00 85 1018.6
20260501234433 55 282 0.0 0.0 0.00 0.00 0.00 85 1018.6
20260501234032 55 238 0.0 0.0 0.00 0.00 0.00 84 1018.6
20260501233932 55 176 0.0 0.0 0.00 0.00 0.00 84 1018.6
20260501233532 55 283 0.0 0.0 0.00 0.00 0.00 84 1018.7
20260501233433 55 106 0.0 0.0 0.00 0.00 0.00 83 1018.7
20260501233031 56 249 0.0 0.0 0.00 0.00 0.00 83 1018.6
20260501232930 56 165 0.0 0.0 0.00 0.00 0.00 83 1018.7
20260501232523 56 238 0.0 0.0 0.00 0.00 0.00 84 1018.7
20260501232428 56 238 0.0 0.0 0.00 0.00 0.00 83 1018.7
20260501232019 56 335 0.0 0.0 0.00 0.00 0.00 83 1018.8
20260501231923 56 7 0.0 0.0 0.00 0.00 0.00 83 1018.7
20260501231516 56 293 0.0 0.0 0.00 0.00 0.00 83 1018.8
20260501231437 56 39 0.0 0.0 0.00 0.00 0.00 83 1018.7
20260501231032 56 278 0.0 0.0 0.00 0.00 0.00 83 1018.9
20260501230932 56 17 0.0 0.0 0.00 0.00 0.00 83 1018.8
20260501230530 56 275 0.0 0.0 0.00 0.00 0.00 83 1018.9
20260501230428 56 275 0.0 0.0 0.00 0.00 0.00 83 1018.9
20260501230017 56 283 0.0 0.0 0.00 0.00 0.00 83 1018.9
20260501225917 56 279 0.0 0.0 0.00 0.00 0.00 83 1018.9
20260501225517 56 268 0.0 0.0 0.00 0.00 0.00 83 1019.0
20260501225435 57 279 0.0 0.0 0.00 0.00 0.00 83 1019.0
20260501225030 57 234 0.0 0.0 0.00 0.00 0.00 82 1019.1
20260501224930 57 329 0.0 0.0 0.00 0.00 0.00 82 1019.1
20260501224529 57 286 0.0 0.0 0.00 0.00 0.00 83 1019.1
20260501224429 57 352 0.0 0.0 0.00 0.00 0.00 83 1019.1
20260501224027 57 44 0.0 0.0 0.00 0.00 0.00 83 1019.2
20260501223928 57 252 0.0 0.0 0.00 0.00 0.00 83 1019.2
20260501223531 57 230 0.0 0.0 0.00 0.00 0.00 83 1019.3
20260501223431 56 230 0.0 0.0 0.00 0.00 0.00 83 1019.3
20260501223026 57 16 0.0 0.0 0.00 0.00 0.00 83 1019.2
20260501222930 57 300 0.0 0.0 0.00 0.00 0.00 83 1019.3
20260501222526 57 132 0.0 0.0 0.00 0.00 0.00 83 1019.3
20260501222411 57 200 0.0 0.0 0.00 0.00 0.00 83 1019.3
20260501222032 57 134 0.0 0.0 0.00 0.00 0.00 82 1019.4
20260501221914 57 78 0.0 0.0 0.00 0.00 0.00 82 1019.3
20260501221533 57 245 0.0 0.0 0.00 0.00 0.00 83 1019.3
20260501221432 57 214 0.0 0.0 0.00 0.00 0.00 83 1019.3
20260501221029 57 281 0.0 0.0 0.00 0.00 0.00 82 1019.3
20260501220928 57 281 0.0 0.0 0.00 0.00 0.00 82 1019.3
20260501220528 57 73 0.0 0.0 0.00 0.00 0.00 82 1019.4
20260501220425 57 266 0.0 0.0 0.00 0.00 0.00 82 1019.3
20260501220030 57 120 0.0 0.0 0.00 0.00 0.00 82 1019.3
20260501215929 57 135 0.0 0.0 0.00 0.00 0.00 82 1019.4
20260501215525 57 84 0.0 0.0 0.00 0.00 0.00 83 1019.4
20260501215425 57 84 0.0 0.0 0.00 0.00 0.00 82 1019.4
20260501215023 57 80 0.0 0.0 0.00 0.00 0.00 82 1019.4
20260501214923 57 276 0.0 0.0 0.00 0.00 0.00 82 1019.4
20260501214520 57 231 0.0 0.0 0.00 0.00 0.00 82 1019.4
20260501214419 57 136 0.0 0.0 0.00 0.00 0.00 83 1019.5
20260501214018 57 26 0.0 0.0 0.00 0.00 0.00 83 1019.5
20260501213938 57 274 0.0 0.0 0.00 0.00 0.00 83 1019.4
20260501213535 57 288 0.0 0.0 0.00 0.00 0.00 83 1019.4
20260501213437 57 124 0.0 0.0 0.00 0.00 0.00 83 1019.4
20260501213028 57 293 0.0 0.0 0.00 0.00 0.00 83 1019.5
20260501212929 57 254 0.0 0.0 0.00 0.00 0.00 83 1019.4
20260501212528 56 262 0.0 0.0 0.00 0.00 0.00 83 1019.3
20260501212429 56 184 0.0 0.0 0.00 0.00 0.00 83 1019.4
20260501212027 56 280 0.0 0.0 0.00 0.00 0.00 83 1019.5
20260501211928 56 319 0.0 0.0 0.00 0.00 0.00 83 1019.4
20260501211528 56 304 0.0 0.0 0.00 0.00 0.00 83 1019.4
20260501211429 56 110 0.0 0.0 0.00 0.00 0.00 83 1019.4
20260501211025 56 38 0.0 0.0 0.00 0.00 0.00 83 1019.3
20260501210924 56 288 0.0 0.0 0.00 0.00 0.00 83 1019.4
20260501210523 56 86 0.0 0.0 0.00 0.00 0.00 83 1019.4
20260501210419 56 70 0.0 0.0 0.00 0.00 0.00 83 1019.4
20260501210026 56 89 0.0 0.0 0.00 0.00 0.00 83 1019.4
20260501205928 56 346 0.0 0.0 0.00 0.00 0.00 83 1019.4
20260501205526 56 236 0.0 0.0 0.00 0.00 0.00 83 1019.3
20260501205425 56 293 0.0 0.0 0.00 0.00 0.00 83 1019.3
20260501205023 56 1 0.0 0.0 0.00 0.00 0.00 82 1019.3
20260501204923 56 274 0.0 0.0 0.00 0.00 0.00 83 1019.3
20260501204522 57 259 0.0 0.0 0.00 0.00 0.00 83 1019.3
20260501204421 57 295 0.0 0.0 0.00 0.00 0.00 82 1019.2
20260501204013 57 278 0.0 0.0 0.00 0.00 0.00 83 1019.3
20260501203937 56 208 0.0 0.0 0.00 0.00 0.00 83 1019.3
20260501203532 56 278 0.0 0.0 0.00 0.00 0.00 83 1019.3
20260501203432 56 214 0.0 0.0 0.00 0.00 0.00 83 1019.3
20260501203033 56 280 0.0 0.0 0.00 0.00 0.00 83 1019.3
20260501202914 56 289 0.0 0.0 0.00 0.00 0.00 83 1019.3
20260501202515 56 89 0.0 0.0 0.00 0.00 0.00 84 1019.3
20260501202435 56 98 0.0 0.0 0.00 0.00 0.00 84 1019.3
20260501202032 56 58 0.0 0.0 0.00 0.00 0.00 83 1019.3
20260501201933 56 85 0.0 0.0 0.00 0.00 0.00 83 1019.3
20260501201530 56 281 0.0 0.0 0.00 0.00 0.00 83 1019.4
20260501201431 56 264 0.0 0.0 0.00 0.00 0.00 83 1019.4
20260501201029 56 347 0.0 0.0 0.00 0.00 0.00 84 1019.3
20260501200929 56 345 0.0 0.0 0.00 0.00 0.00 84 1019.4
20260501200529 56 304 0.0 0.0 0.00 0.00 0.00 83 1019.3
20260501200427 56 304 0.0 0.0 0.00 0.00 0.00 83 1019.3
20260501200016 56 287 0.0 0.0 0.00 0.00 0.00 83 1019.3
20260501195918 56 262 0.0 0.0 0.00 0.00 0.00 83 1019.3
20260501195515 56 127 0.0 0.0 0.00 0.00 0.00 83 1019.3
20260501195433 56 70 0.0 0.0 0.00 0.00 0.00 83 1019.3
20260501195032 56 169 0.0 0.0 0.00 0.00 0.00 83 1019.3
20260501194932 56 169 0.0 0.0 0.00 0.00 0.00 83 1019.3
20260501194527 56 270 0.0 0.0 0.00 0.00 0.00 83 1019.3
20260501194430 56 283 0.0 0.0 0.00 0.00 0.00 83 1019.3
20260501194021 56 264 0.0 0.0 0.00 0.00 0.00 83 1019.3
20260501193925 56 136 0.0 0.0 0.00 0.00 0.00 83 1019.3
20260501193521 56 244 0.0 0.0 0.00 0.00 0.00 83 1019.3
20260501193417 56 297 0.0 0.0 0.00 0.00 0.00 83 1019.4
20260501193015 56 261 0.0 0.0 0.00 0.00 0.00 83 1019.4
20260501192933 56 261 0.0 0.0 0.00 0.00 0.00 83 1019.4
20260501192533 56 169 0.0 0.0 0.00 0.00 0.00 83 1019.5
20260501192433 56 258 0.0 0.0 0.00 0.00 0.00 83 1019.5
20260501192033 56 122 0.0 0.0 0.00 0.00 0.00 83 1019.5
20260501191934 56 278 0.0 0.0 0.00 0.00 0.00 83 1019.5
20260501191533 56 271 0.0 0.0 0.00 0.00 0.00 83 1019.6
20260501191432 56 271 0.0 0.0 0.00 0.00 0.00 83 1019.6
20260501191030 56 271 0.0 0.0 0.00 0.00 0.00 83 1019.6
20260501190929 56 271 0.0 0.0 0.00 0.00 0.00 84 1019.7
20260501190529 56 112 0.0 0.0 0.00 0.00 0.00 84 1019.6
20260501190430 56 112 0.0 0.0 0.00 0.00 0.00 84 1019.6
20260501190015 56 238 0.0 0.0 0.00 0.00 0.00 84 1019.5
20260501185915 56 167 0.0 0.0 0.00 0.00 0.00 84 1019.6
20260501185514 56 107 0.0 0.0 0.00 0.00 0.00 85 1019.5
20260501185412 55 107 0.0 0.0 0.00 0.00 0.00 84 1019.5
20260501185033 55 280 0.0 0.0 0.00 0.00 0.00 85 1019.5
20260501184935 55 74 0.0 0.0 0.00 0.00 0.00 85 1019.5
20260501184527 55 244 0.0 0.0 0.00 0.00 0.00 85 1019.6
20260501184429 55 292 0.0 0.0 0.00 0.00 0.00 84 1019.5
20260501184029 55 255 0.0 0.0 0.00 0.00 0.00 85 1019.5
20260501183930 55 221 0.0 0.0 0.00 0.00 0.00 84 1019.6
20260501183532 55 255 0.0 0.0 0.00 0.00 0.00 84 1019.6
20260501183431 55 160 0.0 0.0 0.00 0.00 0.00 84 1019.6
20260501183030 55 56 0.0 0.0 0.00 0.00 0.00 84 1019.5
20260501182932 55 283 0.0 0.0 0.00 0.00 0.00 85 1019.7
20260501182528 55 299 0.0 0.0 0.00 0.00 0.00 85 1019.6
20260501182429 55 299 0.0 0.0 0.00 0.00 0.00 85 1019.6
20260501182027 55 231 0.0 0.0 0.00 0.00 0.00 85 1019.5
20260501181928 55 276 0.0 0.0 0.00 0.00 0.00 85 1019.5
20260501181528 55 285 0.0 0.0 0.00 0.00 0.00 85 1019.5
20260501181427 55 278 0.0 0.0 0.00 0.00 0.00 85 1019.5
20260501181026 55 217 0.0 0.0 0.00 0.00 0.00 84 1019.4
20260501180926 55 290 0.0 0.0 0.00 0.00 0.00 84 1019.4
20260501180528 55 248 0.0 0.0 0.00 0.00 0.00 85 1019.4
20260501180429 55 264 0.0 0.0 0.00 0.00 0.00 85 1019.4
20260501180017 55 300 0.0 0.0 0.00 0.00 0.00 85 1019.4
20260501175919 55 218 0.0 0.0 0.00 0.00 0.00 85 1019.5
20260501175518 55 275 0.0 0.0 0.00 0.00 0.00 84 1019.6
20260501175419 55 250 0.0 0.0 0.00 0.00 0.00 84 1019.5
20260501175030 55 259 0.0 0.0 0.00 0.00 0.00 85 1019.6
20260501174934 55 259 0.0 0.0 0.00 0.00 0.00 85 1019.5
20260501174529 55 32 0.0 0.0 0.00 0.00 0.00 85 1019.5
20260501174430 55 323 0.0 0.0 0.00 0.00 0.00 85 1019.5
20260501174028 55 257 0.0 0.0 0.00 0.00 0.00 86 1019.5
20260501173926 55 257 0.0 0.0 0.00 0.00 0.00 86 1019.4
20260501173524 55 252 0.0 0.0 0.00 0.00 0.00 86 1019.4
20260501173424 55 252 0.0 0.0 0.00 0.00 0.00 86 1019.3
20260501173024 55 266 0.0 0.0 0.00 0.00 0.00 85 1019.3
20260501172925 55 283 0.0 0.0 0.00 0.00 0.00 85 1019.3
20260501172524 55 77 0.0 0.0 0.00 0.00 0.00 85 1019.3
20260501172425 55 223 0.0 0.0 0.00 0.00 0.00 85 1019.3
20260501172025 55 53 0.0 0.0 0.00 0.00 0.00 86 1019.3
20260501171925 55 53 0.0 0.0 0.00 0.00 0.00 86 1019.3
20260501171523 55 53 0.0 0.0 0.00 0.00 0.00 86 1019.3
20260501171424 55 53 0.0 0.0 0.00 0.00 0.00 86 1019.3
20260501171021 55 53 0.0 0.0 0.00 0.00 0.00 86 1019.2
20260501170919 55 53 0.0 0.0 0.00 0.00 0.00 85 1019.2
20260501170520 55 254 0.0 0.0 0.00 0.00 0.00 85 1019.2
20260501170421 55 271 0.0 0.0 0.00 0.00 0.00 86 1019.2
20260501170027 55 315 0.0 0.0 0.00 0.00 0.00 85 1019.1
20260501165929 55 276 0.0 0.0 0.00 0.00 0.00 86 1019.1
20260501165524 55 81 0.0 0.0 0.00 0.00 0.00 85 1019.0
20260501165429 55 94 0.0 0.0 0.00 0.00 0.00 85 1019.1
20260501165021 55 281 0.0 0.0 0.00 0.00 0.00 85 1019.0
20260501164924 55 282 0.0 0.0 0.00 0.00 0.00 85 1019.0
20260501164516 55 254 0.0 0.0 0.00 0.00 0.00 85 1019.1
20260501164416 55 292 0.0 0.0 0.00 0.00 0.00 85 1019.0
20260501164013 55 248 0.0 0.0 0.00 0.00 0.00 85 1018.9
20260501163934 55 248 0.0 0.0 0.00 0.00 0.00 85 1018.9
20260501163534 55 265 0.0 0.0 0.00 0.00 0.00 85 1019.0
20260501163414 55 269 0.0 0.0 0.00 0.00 0.00 86 1019.0
20260501163013 55 247 0.0 0.0 0.00 0.00 0.00 86 1018.8
20260501162934 55 247 0.0 0.0 0.00 0.00 0.00 86 1018.8
20260501162530 54 157 0.0 0.0 0.00 0.00 0.00 87 1018.9
20260501162432 54 117 0.0 0.0 0.00 0.00 0.00 87 1018.9
20260501162032 54 241 0.0 0.0 0.00 0.00 0.00 87 1018.8
20260501161933 54 241 0.0 0.0 0.00 0.00 0.00 87 1018.8
20260501161531 54 241 0.0 0.0 0.00 0.00 0.00 87 1018.9
20260501161430 54 241 0.0 0.0 0.00 0.00 0.00 87 1018.8
20260501161029 54 303 0.0 0.0 0.00 0.00 0.00 87 1018.8
20260501160929 54 303 0.0 0.0 0.00 0.00 0.00 87 1018.8
20260501160530 54 359 0.0 0.0 0.00 0.00 0.00 87 1018.9
20260501160432 54 359 0.0 0.0 0.00 0.00 0.00 87 1019.0
20260501160031 54 264 0.0 0.0 0.00 0.00 0.00 88 1019.0
20260501155915 54 264 0.0 0.0 0.00 0.00 0.00 87 1019.0